#datetime,building,power
2022-11-30T00:00:00,mfh,60.79
2022-11-30T00:01:00,mfh,61.32
2022-11-30T00:02:00,mfh,60.57
2022-11-30T00:03:00,mfh,60.64
2022-11-30T00:04:00,mfh,59.68
2022-11-30T00:05:00,mfh,60.29
2022-11-30T00:06:00,mfh,60.10
2022-11-30T00:07:00,mfh,60.46
2022-11-30T00:08:00,mfh,60.65
2022-11-30T00:09:00,mfh,60.72
2022-11-30T00:10:00,mfh,60.75
2022-11-30T00:11:00,mfh,60.63
2022-11-30T00:12:00,mfh,59.70
2022-11-30T00:13:00,mfh,59.65
2022-11-30T00:14:00,mfh,59.60
2022-11-30T00:15:00,mfh,57.69
2022-11-30T00:16:00,mfh,58.32
2022-11-30T00:17:00,mfh,58.38
2022-11-30T00:18:00,mfh,58.28
2022-11-30T00:19:00,mfh,58.25
2022-11-30T00:20:00,mfh,57.85
2022-11-30T00:21:00,mfh,57.50
2022-11-30T00:22:00,mfh,57.65
2022-11-30T00:23:00,mfh,57.65
2022-11-30T00:24:00,mfh,58.09
2022-11-30T00:25:00,mfh,58.20
2022-11-30T00:26:00,mfh,58.46
2022-11-30T00:27:00,mfh,58.69
2022-11-30T00:28:00,mfh,58.06
2022-11-30T00:29:00,mfh,58.15
2022-11-30T00:30:00,mfh,58.18
2022-11-30T00:31:00,mfh,58.04
2022-11-30T00:32:00,mfh,58.74
2022-11-30T00:33:00,mfh,58.82
2022-11-30T00:34:00,mfh,58.74
2022-11-30T00:35:00,mfh,58.69
2022-11-30T00:36:00,mfh,58.49
2022-11-30T00:37:00,mfh,57.98
2022-11-30T00:38:00,mfh,58.22
2022-11-30T00:39:00,mfh,58.03
2022-11-30T00:40:00,mfh,58.87
2022-11-30T00:41:00,mfh,59.86
2022-11-30T00:42:00,mfh,58.62
2022-11-30T00:43:00,mfh,58.82
2022-11-30T00:44:00,mfh,58.30
2022-11-30T00:45:00,mfh,58.42
2022-11-30T00:46:00,mfh,58.79
2022-11-30T00:47:00,mfh,58.28
2022-11-30T00:48:00,mfh,58.89
2022-11-30T00:49:00,mfh,59.09
2022-11-30T00:50:00,mfh,58.96
2022-11-30T00:51:00,mfh,58.75
2022-11-30T00:52:00,mfh,58.91
2022-11-30T00:53:00,mfh,58.52
2022-11-30T00:54:00,mfh,62.17
2022-11-30T00:55:00,mfh,75.93
2022-11-30T00:56:00,mfh,83.45
2022-11-30T00:57:00,mfh,84.21
2022-11-30T00:58:00,mfh,83.99
2022-11-30T00:59:00,mfh,83.67
2022-11-30T01:00:00,mfh,83.32
2022-11-30T01:01:00,mfh,82.76
2022-11-30T01:02:00,mfh,82.55
2022-11-30T01:03:00,mfh,82.82
2022-11-30T01:04:00,mfh,82.61
2022-11-30T01:05:00,mfh,82.81
2022-11-30T01:06:00,mfh,82.81
2022-11-30T01:07:00,mfh,81.97
2022-11-30T01:08:00,mfh,81.73
2022-11-30T01:09:00,mfh,81.12
2022-11-30T01:10:00,mfh,80.88
2022-11-30T01:11:00,mfh,80.78
2022-11-30T01:12:00,mfh,81.88
2022-11-30T01:13:00,mfh,76.49
2022-11-30T01:14:00,mfh,57.05
2022-11-30T01:15:00,mfh,57.40
2022-11-30T01:16:00,mfh,57.34
2022-11-30T01:17:00,mfh,56.67
2022-11-30T01:18:00,mfh,56.82
2022-11-30T01:19:00,mfh,56.76
2022-11-30T01:20:00,mfh,57.01
2022-11-30T01:21:00,mfh,57.50
2022-11-30T01:22:00,mfh,57.86
2022-11-30T01:23:00,mfh,58.19
2022-11-30T01:24:00,mfh,58.06
2022-11-30T01:25:00,mfh,57.37
2022-11-30T01:26:00,mfh,57.97
2022-11-30T01:27:00,mfh,48.23
2022-11-30T01:28:00,mfh,48.29
2022-11-30T01:29:00,mfh,48.86
2022-11-30T01:30:00,mfh,48.90
2022-11-30T01:31:00,mfh,49.02
2022-11-30T01:32:00,mfh,49.02
2022-11-30T01:33:00,mfh,48.60
2022-11-30T01:34:00,mfh,48.17
2022-11-30T01:35:00,mfh,48.24
2022-11-30T01:36:00,mfh,48.70
2022-11-30T01:37:00,mfh,48.86
2022-11-30T01:38:00,mfh,48.96
2022-11-30T01:39:00,mfh,49.46
2022-11-30T01:40:00,mfh,49.16
2022-11-30T01:41:00,mfh,48.35
2022-11-30T01:42:00,mfh,48.03
2022-11-30T01:43:00,mfh,48.18
2022-11-30T01:44:00,mfh,48.25
2022-11-30T01:45:00,mfh,49.35
2022-11-30T01:46:00,mfh,48.98
2022-11-30T01:47:00,mfh,48.91
2022-11-30T01:48:00,mfh,48.98
2022-11-30T01:49:00,mfh,48.43
2022-11-30T01:50:00,mfh,48.57
2022-11-30T01:51:00,mfh,48.27
2022-11-30T01:52:00,mfh,48.29
2022-11-30T01:53:00,mfh,50.83
2022-11-30T01:54:00,mfh,50.81
2022-11-30T01:55:00,mfh,50.81
2022-11-30T01:56:00,mfh,50.91
2022-11-30T01:57:00,mfh,50.38
2022-11-30T01:58:00,mfh,50.13
2022-11-30T01:59:00,mfh,50.08
2022-11-30T02:00:00,mfh,50.00
2022-11-30T02:01:00,mfh,51.41
2022-11-30T02:02:00,mfh,51.44
2022-11-30T02:03:00,mfh,51.52
2022-11-30T02:04:00,mfh,51.52
2022-11-30T02:05:00,mfh,50.80
2022-11-30T02:06:00,mfh,50.92
2022-11-30T02:07:00,mfh,50.74
2022-11-30T02:08:00,mfh,50.69
2022-11-30T02:09:00,mfh,51.28
2022-11-30T02:10:00,mfh,51.30
2022-11-30T02:11:00,mfh,49.67
2022-11-30T02:12:00,mfh,49.71
2022-11-30T02:13:00,mfh,48.87
2022-11-30T02:14:00,mfh,48.20
2022-11-30T02:15:00,mfh,48.23
2022-11-30T02:16:00,mfh,48.15
2022-11-30T02:17:00,mfh,48.47
2022-11-30T02:18:00,mfh,48.66
2022-11-30T02:19:00,mfh,48.68
2022-11-30T02:20:00,mfh,48.73
2022-11-30T02:21:00,mfh,48.84
2022-11-30T02:22:00,mfh,48.16
2022-11-30T02:23:00,mfh,48.79
2022-11-30T02:24:00,mfh,48.26
2022-11-30T02:25:00,mfh,48.27
2022-11-30T02:26:00,mfh,48.92
2022-11-30T02:27:00,mfh,49.00
2022-11-30T02:28:00,mfh,49.12
2022-11-30T02:29:00,mfh,48.85
2022-11-30T02:30:00,mfh,48.16
2022-11-30T02:31:00,mfh,48.31
2022-11-30T02:32:00,mfh,48.08
2022-11-30T02:33:00,mfh,48.09
2022-11-30T02:34:00,mfh,48.52
2022-11-30T02:35:00,mfh,48.40
2022-11-30T02:36:00,mfh,48.38
2022-11-30T02:37:00,mfh,48.94
2022-11-30T02:38:00,mfh,47.91
2022-11-30T02:39:00,mfh,48.04
2022-11-30T02:40:00,mfh,48.16
2022-11-30T02:41:00,mfh,48.29
2022-11-30T02:42:00,mfh,48.89
2022-11-30T02:43:00,mfh,48.82
2022-11-30T02:44:00,mfh,48.81
2022-11-30T02:45:00,mfh,48.72
2022-11-30T02:46:00,mfh,48.02
2022-11-30T02:47:00,mfh,47.97
2022-11-30T02:48:00,mfh,48.07
2022-11-30T02:49:00,mfh,47.96
2022-11-30T02:50:00,mfh,48.60
2022-11-30T02:51:00,mfh,48.54
2022-11-30T02:52:00,mfh,49.04
2022-11-30T02:53:00,mfh,49.06
2022-11-30T02:54:00,mfh,47.86
2022-11-30T02:55:00,mfh,47.77
2022-11-30T02:56:00,mfh,47.82
2022-11-30T02:57:00,mfh,47.77
2022-11-30T02:58:00,mfh,48.47
2022-11-30T02:59:00,mfh,48.85
2022-11-30T03:00:00,mfh,48.52
2022-11-30T03:01:00,mfh,48.83
2022-11-30T03:02:00,mfh,47.86
2022-11-30T03:03:00,mfh,47.73
2022-11-30T03:04:00,mfh,47.79
2022-11-30T03:05:00,mfh,47.84
2022-11-30T03:06:00,mfh,48.76
2022-11-30T03:07:00,mfh,48.77
2022-11-30T03:08:00,mfh,48.75
2022-11-30T03:09:00,mfh,48.80
2022-11-30T03:10:00,mfh,48.92
2022-11-30T03:11:00,mfh,48.20
2022-11-30T03:12:00,mfh,48.26
2022-11-30T03:13:00,mfh,48.26
2022-11-30T03:14:00,mfh,48.18
2022-11-30T03:15:00,mfh,48.92
2022-11-30T03:16:00,mfh,50.64
2022-11-30T03:17:00,mfh,50.58
2022-11-30T03:18:00,mfh,50.65
2022-11-30T03:19:00,mfh,49.96
2022-11-30T03:20:00,mfh,49.96
2022-11-30T03:21:00,mfh,48.77
2022-11-30T03:22:00,mfh,48.39
2022-11-30T03:23:00,mfh,49.12
2022-11-30T03:24:00,mfh,49.22
2022-11-30T03:25:00,mfh,49.26
2022-11-30T03:26:00,mfh,49.17
2022-11-30T03:27:00,mfh,48.41
2022-11-30T03:28:00,mfh,48.91
2022-11-30T03:29:00,mfh,48.45
2022-11-30T03:30:00,mfh,48.39
2022-11-30T03:31:00,mfh,49.05
2022-11-30T03:32:00,mfh,49.07
2022-11-30T03:33:00,mfh,49.17
2022-11-30T03:34:00,mfh,49.26
2022-11-30T03:35:00,mfh,48.71
2022-11-30T03:36:00,mfh,51.00
2022-11-30T03:37:00,mfh,50.57
2022-11-30T03:38:00,mfh,50.45
2022-11-30T03:39:00,mfh,51.05
2022-11-30T03:40:00,mfh,51.04
2022-11-30T03:41:00,mfh,51.09
2022-11-30T03:42:00,mfh,51.17
2022-11-30T03:43:00,mfh,50.45
2022-11-30T03:44:00,mfh,50.44
2022-11-30T03:45:00,mfh,50.43
2022-11-30T03:46:00,mfh,50.36
2022-11-30T03:47:00,mfh,51.75
2022-11-30T03:48:00,mfh,51.06
2022-11-30T03:49:00,mfh,51.62
2022-11-30T03:50:00,mfh,51.00
2022-11-30T03:51:00,mfh,51.02
2022-11-30T03:52:00,mfh,50.31
2022-11-30T03:53:00,mfh,50.33
2022-11-30T03:54:00,mfh,49.39
2022-11-30T03:55:00,mfh,48.97
2022-11-30T03:56:00,mfh,48.84
2022-11-30T03:57:00,mfh,48.91
2022-11-30T03:58:00,mfh,48.95
2022-11-30T03:59:00,mfh,49.03
2022-11-30T04:00:00,mfh,48.32
2022-11-30T04:01:00,mfh,48.23
2022-11-30T04:02:00,mfh,48.01
2022-11-30T04:03:00,mfh,48.84
2022-11-30T04:04:00,mfh,48.73
2022-11-30T04:05:00,mfh,49.56
2022-11-30T04:06:00,mfh,48.81
2022-11-30T04:07:00,mfh,48.80
2022-11-30T04:08:00,mfh,48.04
2022-11-30T04:09:00,mfh,48.05
2022-11-30T04:10:00,mfh,48.58
2022-11-30T04:11:00,mfh,48.90
2022-11-30T04:12:00,mfh,48.93
2022-11-30T04:13:00,mfh,49.01
2022-11-30T04:14:00,mfh,49.06
2022-11-30T04:15:00,mfh,49.48
2022-11-30T04:16:00,mfh,48.28
2022-11-30T04:17:00,mfh,48.23
2022-11-30T04:18:00,mfh,48.25
2022-11-30T04:19:00,mfh,48.34
2022-11-30T04:20:00,mfh,48.94
2022-11-30T04:21:00,mfh,49.63
2022-11-30T04:22:00,mfh,48.90
2022-11-30T04:23:00,mfh,49.00
2022-11-30T04:24:00,mfh,48.18
2022-11-30T04:25:00,mfh,48.22
2022-11-30T04:26:00,mfh,48.26
2022-11-30T04:27:00,mfh,48.25
2022-11-30T04:28:00,mfh,48.67
2022-11-30T04:29:00,mfh,49.16
2022-11-30T04:30:00,mfh,48.67
2022-11-30T04:31:00,mfh,48.70
2022-11-30T04:32:00,mfh,48.05
2022-11-30T04:33:00,mfh,48.87
2022-11-30T04:34:00,mfh,49.19
2022-11-30T04:35:00,mfh,49.11
2022-11-30T04:36:00,mfh,49.84
2022-11-30T04:37:00,mfh,50.81
2022-11-30T04:38:00,mfh,49.82
2022-11-30T04:39:00,mfh,49.75
2022-11-30T04:40:00,mfh,50.19
2022-11-30T04:41:00,mfh,49.20
2022-11-30T04:42:00,mfh,48.92
2022-11-30T04:43:00,mfh,49.02
2022-11-30T04:44:00,mfh,48.84
2022-11-30T04:45:00,mfh,48.86
2022-11-30T04:46:00,mfh,48.94
2022-11-30T04:47:00,mfh,48.96
2022-11-30T04:48:00,mfh,49.08
2022-11-30T04:49:00,mfh,48.26
2022-11-30T04:50:00,mfh,48.23
2022-11-30T04:51:00,mfh,48.30
2022-11-30T04:52:00,mfh,48.33
2022-11-30T04:53:00,mfh,49.04
2022-11-30T04:54:00,mfh,49.20
2022-11-30T04:55:00,mfh,49.00
2022-11-30T04:56:00,mfh,49.05
2022-11-30T04:57:00,mfh,49.18
2022-11-30T04:58:00,mfh,48.49
2022-11-30T04:59:00,mfh,48.64
2022-11-30T05:00:00,mfh,48.50
2022-11-30T05:01:00,mfh,67.48
2022-11-30T05:02:00,mfh,71.53
2022-11-30T05:03:00,mfh,71.18
2022-11-30T05:04:00,mfh,71.30
2022-11-30T05:05:00,mfh,70.61
2022-11-30T05:06:00,mfh,71.66
2022-11-30T05:07:00,mfh,69.79
2022-11-30T05:08:00,mfh,70.03
2022-11-30T05:09:00,mfh,69.48
2022-11-30T05:10:00,mfh,69.17
2022-11-30T05:11:00,mfh,69.28
2022-11-30T05:12:00,mfh,69.74
2022-11-30T05:13:00,mfh,69.15
2022-11-30T05:14:00,mfh,75.05
2022-11-30T05:15:00,mfh,76.22
2022-11-30T05:16:00,mfh,75.94
2022-11-30T05:17:00,mfh,76.54
2022-11-30T05:18:00,mfh,76.98
2022-11-30T05:19:00,mfh,77.69
2022-11-30T05:20:00,mfh,77.66
2022-11-30T05:21:00,mfh,77.76
2022-11-30T05:22:00,mfh,77.16
2022-11-30T05:23:00,mfh,77.15
2022-11-30T05:24:00,mfh,77.16
2022-11-30T05:25:00,mfh,77.37
2022-11-30T05:26:00,mfh,77.16
2022-11-30T05:27:00,mfh,77.08
2022-11-30T05:28:00,mfh,77.02
2022-11-30T05:29:00,mfh,77.26
2022-11-30T05:30:00,mfh,76.52
2022-11-30T05:31:00,mfh,76.74
2022-11-30T05:32:00,mfh,76.76
2022-11-30T05:33:00,mfh,76.74
2022-11-30T05:34:00,mfh,77.04
2022-11-30T05:35:00,mfh,77.12
2022-11-30T05:36:00,mfh,77.50
2022-11-30T05:37:00,mfh,76.42
2022-11-30T05:38:00,mfh,75.65
2022-11-30T05:39:00,mfh,75.76
2022-11-30T05:40:00,mfh,76.20
2022-11-30T05:41:00,mfh,76.47
2022-11-30T05:42:00,mfh,76.95
2022-11-30T05:43:00,mfh,76.63
2022-11-30T05:44:00,mfh,76.69
2022-11-30T05:45:00,mfh,76.69
2022-11-30T05:46:00,mfh,75.97
2022-11-30T05:47:00,mfh,75.88
2022-11-30T05:48:00,mfh,75.84
2022-11-30T05:49:00,mfh,75.64
2022-11-30T05:50:00,mfh,76.78
2022-11-30T05:51:00,mfh,76.71
2022-11-30T05:52:00,mfh,77.01
2022-11-30T05:53:00,mfh,76.66
2022-11-30T05:54:00,mfh,76.00
2022-11-30T05:55:00,mfh,75.94
2022-11-30T05:56:00,mfh,76.06
2022-11-30T05:57:00,mfh,75.96
2022-11-30T05:58:00,mfh,76.38
2022-11-30T05:59:00,mfh,76.76
2022-11-30T06:00:00,mfh,77.93
2022-11-30T06:01:00,mfh,80.67
2022-11-30T06:02:00,mfh,85.22
2022-11-30T06:03:00,mfh,85.62
2022-11-30T06:04:00,mfh,85.43
2022-11-30T06:05:00,mfh,85.43
2022-11-30T06:06:00,mfh,85.39
2022-11-30T06:07:00,mfh,85.54
2022-11-30T06:08:00,mfh,85.52
2022-11-30T06:09:00,mfh,85.44
2022-11-30T06:10:00,mfh,85.40
2022-11-30T06:11:00,mfh,85.29
2022-11-30T06:12:00,mfh,85.05
2022-11-30T06:13:00,mfh,85.07
2022-11-30T06:14:00,mfh,85.05
2022-11-30T06:15:00,mfh,84.94
2022-11-30T06:16:00,mfh,84.85
2022-11-30T06:17:00,mfh,84.84
2022-11-30T06:18:00,mfh,85.02
2022-11-30T06:19:00,mfh,80.58
2022-11-30T06:20:00,mfh,80.49
2022-11-30T06:21:00,mfh,85.45
2022-11-30T06:22:00,mfh,85.38
2022-11-30T06:23:00,mfh,85.36
2022-11-30T06:24:00,mfh,85.34
2022-11-30T06:25:00,mfh,85.76
2022-11-30T06:26:00,mfh,85.64
2022-11-30T06:27:00,mfh,85.56
2022-11-30T06:28:00,mfh,85.41
2022-11-30T06:29:00,mfh,85.58
2022-11-30T06:30:00,mfh,85.04
2022-11-30T06:31:00,mfh,81.16
2022-11-30T06:32:00,mfh,80.71
2022-11-30T06:33:00,mfh,81.43
2022-11-30T06:34:00,mfh,80.73
2022-11-30T06:35:00,mfh,81.42
2022-11-30T06:36:00,mfh,80.87
2022-11-30T06:37:00,mfh,80.65
2022-11-30T06:38:00,mfh,80.96
2022-11-30T06:39:00,mfh,80.95
2022-11-30T06:40:00,mfh,81.20
2022-11-30T06:41:00,mfh,81.05
2022-11-30T06:42:00,mfh,81.38
2022-11-30T06:43:00,mfh,80.96
2022-11-30T06:44:00,mfh,81.10
2022-11-30T06:45:00,mfh,80.95
2022-11-30T06:46:00,mfh,80.41
2022-11-30T06:47:00,mfh,80.46
2022-11-30T06:48:00,mfh,80.50
2022-11-30T06:49:00,mfh,81.56
2022-11-30T06:50:00,mfh,80.62
2022-11-30T06:51:00,mfh,80.36
2022-11-30T06:52:00,mfh,81.13
2022-11-30T06:53:00,mfh,80.68
2022-11-30T06:54:00,mfh,80.37
2022-11-30T06:55:00,mfh,81.53
2022-11-30T06:56:00,mfh,81.54
2022-11-30T06:57:00,mfh,81.17
2022-11-30T06:58:00,mfh,80.75
2022-11-30T06:59:00,mfh,81.11
2022-11-30T07:00:00,mfh,81.06
2022-11-30T07:01:00,mfh,81.11
2022-11-30T07:02:00,mfh,81.04
2022-11-30T07:03:00,mfh,80.94
2022-11-30T07:04:00,mfh,81.21
2022-11-30T07:05:00,mfh,80.77
2022-11-30T07:06:00,mfh,80.86
2022-11-30T07:07:00,mfh,80.64
2022-11-30T07:08:00,mfh,80.56
2022-11-30T07:09:00,mfh,81.21
2022-11-30T07:10:00,mfh,81.44
2022-11-30T07:11:00,mfh,81.17
2022-11-30T07:12:00,mfh,80.84
2022-11-30T07:13:00,mfh,81.22
2022-11-30T07:14:00,mfh,81.42
2022-11-30T07:15:00,mfh,81.42
2022-11-30T07:16:00,mfh,81.54
2022-11-30T07:17:00,mfh,81.37
2022-11-30T07:18:00,mfh,80.68
2022-11-30T07:19:00,mfh,80.28
2022-11-30T07:20:00,mfh,80.51
2022-11-30T07:21:00,mfh,81.02
2022-11-30T07:22:00,mfh,80.84
2022-11-30T07:23:00,mfh,80.66
2022-11-30T07:24:00,mfh,80.77
2022-11-30T07:25:00,mfh,80.92
2022-11-30T07:26:00,mfh,81.11
2022-11-30T07:27:00,mfh,81.66
2022-11-30T07:28:00,mfh,80.19
2022-11-30T07:29:00,mfh,80.00
2022-11-30T07:30:00,mfh,80.24
2022-11-30T07:31:00,mfh,80.21
2022-11-30T07:32:00,mfh,80.59
2022-11-30T07:33:00,mfh,80.62
2022-11-30T07:34:00,mfh,80.54
2022-11-30T07:35:00,mfh,80.09
2022-11-30T07:36:00,mfh,80.14
2022-11-30T07:37:00,mfh,80.24
2022-11-30T07:38:00,mfh,79.97
2022-11-30T07:39:00,mfh,79.73
2022-11-30T07:40:00,mfh,79.70
2022-11-30T07:41:00,mfh,79.88
2022-11-30T07:42:00,mfh,79.82
2022-11-30T07:43:00,mfh,79.89
2022-11-30T07:44:00,mfh,79.98
2022-11-30T07:45:00,mfh,79.66
2022-11-30T07:46:00,mfh,79.39
2022-11-30T07:47:00,mfh,79.82
2022-11-30T07:48:00,mfh,79.96
2022-11-30T07:49:00,mfh,79.59
2022-11-30T07:50:00,mfh,78.73
2022-11-30T07:51:00,mfh,79.29
2022-11-30T07:52:00,mfh,79.50
2022-11-30T07:53:00,mfh,79.39
2022-11-30T07:54:00,mfh,79.37
2022-11-30T07:55:00,mfh,80.31
2022-11-30T07:56:00,mfh,80.05
2022-11-30T07:57:00,mfh,80.08
2022-11-30T07:58:00,mfh,80.44
2022-11-30T07:59:00,mfh,80.08
2022-11-30T08:00:00,mfh,79.67
2022-11-30T08:01:00,mfh,79.63
2022-11-30T08:02:00,mfh,79.63
2022-11-30T08:03:00,mfh,80.11
2022-11-30T08:04:00,mfh,86.72
2022-11-30T08:05:00,mfh,87.21
2022-11-30T08:06:00,mfh,87.12
2022-11-30T08:07:00,mfh,87.09
2022-11-30T08:08:00,mfh,86.95
2022-11-30T08:09:00,mfh,86.97
2022-11-30T08:10:00,mfh,86.85
2022-11-30T08:11:00,mfh,86.83
2022-11-30T08:12:00,mfh,86.91
2022-11-30T08:13:00,mfh,86.83
2022-11-30T08:14:00,mfh,86.84
2022-11-30T08:15:00,mfh,86.78
2022-11-30T08:16:00,mfh,86.70
2022-11-30T08:17:00,mfh,87.01
2022-11-30T08:18:00,mfh,86.73
2022-11-30T08:19:00,mfh,86.65
2022-11-30T08:20:00,mfh,86.72
2022-11-30T08:21:00,mfh,86.62
2022-11-30T08:22:00,mfh,86.57
2022-11-30T08:23:00,mfh,86.32
2022-11-30T08:24:00,mfh,86.35
2022-11-30T08:25:00,mfh,86.45
2022-11-30T08:26:00,mfh,86.43
2022-11-30T08:27:00,mfh,86.53
2022-11-30T08:28:00,mfh,86.47
2022-11-30T08:29:00,mfh,86.79
2022-11-30T08:30:00,mfh,86.61
2022-11-30T08:31:00,mfh,86.72
2022-11-30T08:32:00,mfh,86.71
2022-11-30T08:33:00,mfh,86.61
2022-11-30T08:34:00,mfh,86.76
2022-11-30T08:35:00,mfh,86.84
2022-11-30T08:36:00,mfh,86.64
2022-11-30T08:37:00,mfh,86.70
2022-11-30T08:38:00,mfh,86.76
2022-11-30T08:39:00,mfh,86.87
2022-11-30T08:40:00,mfh,86.69
2022-11-30T08:41:00,mfh,86.85
2022-11-30T08:42:00,mfh,87.00
2022-11-30T08:43:00,mfh,86.79
2022-11-30T08:44:00,mfh,86.60
2022-11-30T08:45:00,mfh,86.60
2022-11-30T08:46:00,mfh,86.97
2022-11-30T08:47:00,mfh,86.74
2022-11-30T08:48:00,mfh,86.75
2022-11-30T08:49:00,mfh,86.64
2022-11-30T08:50:00,mfh,87.19
2022-11-30T08:51:00,mfh,87.16
2022-11-30T08:52:00,mfh,87.31
2022-11-30T08:53:00,mfh,87.16
2022-11-30T08:54:00,mfh,87.01
2022-11-30T08:55:00,mfh,86.87
2022-11-30T08:56:00,mfh,86.95
2022-11-30T08:57:00,mfh,89.78
2022-11-30T08:58:00,mfh,89.92
2022-11-30T08:59:00,mfh,89.93
2022-11-30T09:00:00,mfh,90.03
2022-11-30T09:01:00,mfh,90.07
2022-11-30T09:02:00,mfh,89.89
2022-11-30T09:03:00,mfh,89.87
2022-11-30T09:04:00,mfh,89.85
2022-11-30T09:05:00,mfh,89.84
2022-11-30T09:06:00,mfh,89.81
2022-11-30T09:07:00,mfh,89.98
2022-11-30T09:08:00,mfh,89.84
2022-11-30T09:09:00,mfh,89.67
2022-11-30T09:10:00,mfh,89.62
2022-11-30T09:11:00,mfh,89.72
2022-11-30T09:12:00,mfh,89.75
2022-11-30T09:13:00,mfh,89.78
2022-11-30T09:14:00,mfh,86.37
2022-11-30T09:15:00,mfh,81.74
2022-11-30T09:16:00,mfh,80.90
2022-11-30T09:17:00,mfh,80.77
2022-11-30T09:18:00,mfh,81.81
2022-11-30T09:19:00,mfh,81.57
2022-11-30T09:20:00,mfh,80.83
2022-11-30T09:21:00,mfh,81.91
2022-11-30T09:22:00,mfh,81.82
2022-11-30T09:23:00,mfh,81.51
2022-11-30T09:24:00,mfh,81.78
2022-11-30T09:25:00,mfh,81.36
2022-11-30T09:26:00,mfh,80.98
2022-11-30T09:27:00,mfh,80.88
2022-11-30T09:28:00,mfh,81.25
2022-11-30T09:29:00,mfh,81.79
2022-11-30T09:30:00,mfh,81.45
2022-11-30T09:31:00,mfh,81.73
2022-11-30T09:32:00,mfh,81.56
2022-11-30T09:33:00,mfh,81.51
2022-11-30T09:34:00,mfh,82.14
2022-11-30T09:35:00,mfh,81.98
2022-11-30T09:36:00,mfh,81.86
2022-11-30T09:37:00,mfh,82.66
2022-11-30T09:38:00,mfh,82.22
2022-11-30T09:39:00,mfh,82.40
2022-11-30T09:40:00,mfh,82.35
2022-11-30T09:41:00,mfh,81.52
2022-11-30T09:42:00,mfh,81.71
2022-11-30T09:43:00,mfh,81.99
2022-11-30T09:44:00,mfh,82.35
2022-11-30T09:45:00,mfh,81.71
2022-11-30T09:46:00,mfh,81.56
2022-11-30T09:47:00,mfh,81.65
2022-11-30T09:48:00,mfh,81.36
2022-11-30T09:49:00,mfh,81.56
2022-11-30T09:50:00,mfh,81.35
2022-11-30T09:51:00,mfh,81.39
2022-11-30T09:52:00,mfh,80.43
2022-11-30T09:53:00,mfh,80.38
2022-11-30T09:54:00,mfh,80.48
2022-11-30T09:55:00,mfh,80.75
2022-11-30T09:56:00,mfh,80.87
2022-11-30T09:57:00,mfh,83.73
2022-11-30T09:58:00,mfh,87.16
2022-11-30T09:59:00,mfh,87.24
2022-11-30T10:00:00,mfh,86.99
2022-11-30T10:01:00,mfh,86.90
2022-11-30T10:02:00,mfh,86.56
2022-11-30T10:03:00,mfh,86.47
2022-11-30T10:04:00,mfh,86.40
2022-11-30T10:05:00,mfh,86.69
2022-11-30T10:06:00,mfh,86.66
2022-11-30T10:07:00,mfh,86.68
2022-11-30T10:08:00,mfh,86.34
2022-11-30T10:09:00,mfh,88.38
2022-11-30T10:10:00,mfh,88.49
2022-11-30T10:11:00,mfh,88.46
2022-11-30T10:12:00,mfh,88.61
2022-11-30T10:13:00,mfh,88.52
2022-11-30T10:14:00,mfh,88.45
2022-11-30T10:15:00,mfh,88.39
2022-11-30T10:16:00,mfh,88.18
2022-11-30T10:17:00,mfh,88.26
2022-11-30T10:18:00,mfh,88.31
2022-11-30T10:19:00,mfh,88.47
2022-11-30T10:20:00,mfh,88.16
2022-11-30T10:21:00,mfh,89.22
2022-11-30T10:22:00,mfh,89.49
2022-11-30T10:23:00,mfh,89.44
2022-11-30T10:24:00,mfh,89.56
2022-11-30T10:25:00,mfh,89.86
2022-11-30T10:26:00,mfh,90.01
2022-11-30T10:27:00,mfh,90.04
2022-11-30T10:28:00,mfh,90.09
2022-11-30T10:29:00,mfh,90.10
2022-11-30T10:30:00,mfh,89.93
2022-11-30T10:31:00,mfh,89.96
2022-11-30T10:32:00,mfh,90.01
2022-11-30T10:33:00,mfh,89.86
2022-11-30T10:34:00,mfh,89.95
2022-11-30T10:35:00,mfh,89.89
2022-11-30T10:36:00,mfh,89.92
2022-11-30T10:37:00,mfh,89.50
2022-11-30T10:38:00,mfh,89.61
2022-11-30T10:39:00,mfh,89.76
2022-11-30T10:40:00,mfh,89.79
2022-11-30T10:41:00,mfh,89.64
2022-11-30T10:42:00,mfh,89.75
2022-11-30T10:43:00,mfh,89.51
2022-11-30T10:44:00,mfh,89.63
2022-11-30T10:45:00,mfh,89.69
2022-11-30T10:46:00,mfh,89.59
2022-11-30T10:47:00,mfh,89.62
2022-11-30T10:48:00,mfh,89.56
2022-11-30T10:49:00,mfh,89.60
2022-11-30T10:50:00,mfh,89.56
2022-11-30T10:51:00,mfh,88.05
2022-11-30T10:52:00,mfh,88.25
2022-11-30T10:53:00,mfh,88.02
2022-11-30T10:54:00,mfh,88.07
2022-11-30T10:55:00,mfh,88.09
2022-11-30T10:56:00,mfh,88.00
2022-11-30T10:57:00,mfh,88.36
2022-11-30T10:58:00,mfh,89.45
2022-11-30T10:59:00,mfh,89.42
2022-11-30T11:00:00,mfh,89.31
2022-11-30T11:01:00,mfh,89.33
2022-11-30T11:02:00,mfh,89.17
2022-11-30T11:03:00,mfh,89.20
2022-11-30T11:04:00,mfh,89.27
2022-11-30T11:05:00,mfh,89.19
2022-11-30T11:06:00,mfh,89.25
2022-11-30T11:07:00,mfh,89.18
2022-11-30T11:08:00,mfh,89.08
2022-11-30T11:09:00,mfh,89.11
2022-11-30T11:10:00,mfh,89.17
2022-11-30T11:11:00,mfh,89.19
2022-11-30T11:12:00,mfh,89.13
2022-11-30T11:13:00,mfh,89.17
2022-11-30T11:14:00,mfh,89.11
2022-11-30T11:15:00,mfh,88.04
2022-11-30T11:16:00,mfh,87.88
2022-11-30T11:17:00,mfh,87.78
2022-11-30T11:18:00,mfh,88.06
2022-11-30T11:19:00,mfh,89.32
2022-11-30T11:20:00,mfh,89.13
2022-11-30T11:21:00,mfh,89.03
2022-11-30T11:22:00,mfh,89.15
2022-11-30T11:23:00,mfh,89.44
2022-11-30T11:24:00,mfh,89.49
2022-11-30T11:25:00,mfh,89.35
2022-11-30T11:26:00,mfh,89.34
2022-11-30T11:27:00,mfh,89.22
2022-11-30T11:28:00,mfh,89.22
2022-11-30T11:29:00,mfh,89.22
2022-11-30T11:30:00,mfh,89.06
2022-11-30T11:31:00,mfh,89.02
2022-11-30T11:32:00,mfh,89.11
2022-11-30T11:33:00,mfh,89.14
2022-11-30T11:34:00,mfh,89.12
2022-11-30T11:35:00,mfh,89.03
2022-11-30T11:36:00,mfh,89.09
2022-11-30T11:37:00,mfh,87.73
2022-11-30T11:38:00,mfh,87.68
2022-11-30T11:39:00,mfh,85.35
2022-11-30T11:40:00,mfh,85.16
2022-11-30T11:41:00,mfh,85.27
2022-11-30T11:42:00,mfh,85.37
2022-11-30T11:43:00,mfh,85.30
2022-11-30T11:44:00,mfh,85.32
2022-11-30T11:45:00,mfh,89.39
2022-11-30T11:46:00,mfh,89.34
2022-11-30T11:47:00,mfh,89.41
2022-11-30T11:48:00,mfh,89.39
2022-11-30T11:49:00,mfh,89.36
2022-11-30T11:50:00,mfh,89.39
2022-11-30T11:51:00,mfh,89.34
2022-11-30T11:52:00,mfh,89.21
2022-11-30T11:53:00,mfh,89.02
2022-11-30T11:54:00,mfh,89.03
2022-11-30T11:55:00,mfh,89.11
2022-11-30T11:56:00,mfh,89.11
2022-11-30T11:57:00,mfh,89.39
2022-11-30T11:58:00,mfh,89.37
2022-11-30T11:59:00,mfh,89.38
2022-11-30T12:00:00,mfh,89.57
2022-11-30T12:01:00,mfh,89.57
2022-11-30T12:02:00,mfh,87.56
2022-11-30T12:03:00,mfh,87.84
2022-11-30T12:04:00,mfh,87.50
2022-11-30T12:05:00,mfh,87.46
2022-11-30T12:06:00,mfh,87.79
2022-11-30T12:07:00,mfh,87.86
2022-11-30T12:08:00,mfh,87.37
2022-11-30T12:09:00,mfh,87.64
2022-11-30T12:10:00,mfh,87.46
2022-11-30T12:11:00,mfh,87.76
2022-11-30T12:12:00,mfh,87.86
2022-11-30T12:13:00,mfh,87.90
2022-11-30T12:14:00,mfh,87.84
2022-11-30T12:15:00,mfh,89.78
2022-11-30T12:16:00,mfh,89.84
2022-11-30T12:17:00,mfh,89.91
2022-11-30T12:18:00,mfh,89.70
2022-11-30T12:19:00,mfh,89.69
2022-11-30T12:20:00,mfh,89.62
2022-11-30T12:21:00,mfh,89.66
2022-11-30T12:22:00,mfh,89.63
2022-11-30T12:23:00,mfh,89.63
2022-11-30T12:24:00,mfh,89.63
2022-11-30T12:25:00,mfh,89.71
2022-11-30T12:26:00,mfh,89.63
2022-11-30T12:27:00,mfh,87.87
2022-11-30T12:28:00,mfh,87.97
2022-11-30T12:29:00,mfh,87.82
2022-11-30T12:30:00,mfh,88.04
2022-11-30T12:31:00,mfh,87.77
2022-11-30T12:32:00,mfh,87.81
2022-11-30T12:33:00,mfh,87.93
2022-11-30T12:34:00,mfh,87.85
2022-11-30T12:35:00,mfh,88.22
2022-11-30T12:36:00,mfh,87.54
2022-11-30T12:37:00,mfh,87.71
2022-11-30T12:38:00,mfh,87.54
2022-11-30T12:39:00,mfh,87.57
2022-11-30T12:40:00,mfh,87.53
2022-11-30T12:41:00,mfh,87.62
2022-11-30T12:42:00,mfh,87.92
2022-11-30T12:43:00,mfh,87.78
2022-11-30T12:44:00,mfh,87.68
2022-11-30T12:45:00,mfh,87.82
2022-11-30T12:46:00,mfh,87.78
2022-11-30T12:47:00,mfh,87.69
2022-11-30T12:48:00,mfh,87.87
2022-11-30T12:49:00,mfh,87.71
2022-11-30T12:50:00,mfh,87.85
2022-11-30T12:51:00,mfh,87.93
2022-11-30T12:52:00,mfh,87.92
2022-11-30T12:53:00,mfh,88.04
2022-11-30T12:54:00,mfh,87.98
2022-11-30T12:55:00,mfh,87.98
2022-11-30T12:56:00,mfh,88.00
2022-11-30T12:57:00,mfh,87.99
2022-11-30T12:58:00,mfh,87.90
2022-11-30T12:59:00,mfh,87.89
2022-11-30T13:00:00,mfh,87.96
2022-11-30T13:01:00,mfh,88.16
2022-11-30T13:02:00,mfh,88.02
2022-11-30T13:03:00,mfh,88.03
2022-11-30T13:04:00,mfh,88.02
2022-11-30T13:05:00,mfh,90.02
2022-11-30T13:06:00,mfh,90.11
2022-11-30T13:07:00,mfh,90.17
2022-11-30T13:08:00,mfh,90.04
2022-11-30T13:09:00,mfh,90.13
2022-11-30T13:10:00,mfh,89.94
2022-11-30T13:11:00,mfh,89.84
2022-11-30T13:12:00,mfh,89.77
2022-11-30T13:13:00,mfh,89.76
2022-11-30T13:14:00,mfh,89.84
2022-11-30T13:15:00,mfh,89.92
2022-11-30T13:16:00,mfh,89.83
2022-11-30T13:17:00,mfh,89.76
2022-11-30T13:18:00,mfh,89.67